CAPE
112 184 732 771 700 738 1145 1211 1088 1147 1172 941 579 688 673 726 863 1032 1119 1347 1491 1549 1583 1765 1775 1647 1639 1665 1656 1331 1299 1022 1230 1047 1124 1321 1412 802 628 880 852 432 491
213 327 542 1029 1279 1284 1290 861 766 840 1078 1093 793 883 728 1042 1241 1600 1745 1795 1883 1836 2226 2218 2058 1761 1939 1814 1592 1487 1394 998 1321 1103 1201 1373 1268 1121 822 919 601 750 694
499 786 1067 1262 1446 1442 1125 660 826 982 1028 1125 865 933 1350 1458 1308 1587 1903 1974 2069 2052 2000 2128 2082 1873 1761 1790 1672 1383 1150 1026 1071 1147 996 822 1346 1132 1168 902 551 832 639
592 921 1237 1378 1444 1242 1141 1215 1372 988 754 772 853 944 984 1256 1433 1527 1576 1742 1753 1808 1900 1872 1810 1805 1682 1539 1496 1478 1081 966 884 949 733 982 1079 1053 989 632 603 826 230
606 737 1148 1174 1353 1210 1490 1502 1165 1125 1061 1093 1241 1352 1345 1398 1506 1806 1701 1535 1622 1720 1810 1840 1834 1732 1695 1516 1415 1465 1434 875 483 654 567 734 628 954 789 350 597 694 286
702 1075 1346 1331 1388 1591 1745 1293 1285 1035 1183 1369 1494 1443 1271 1413 1461 1763 1729 1785 1806 1827 1766 1741 1654 1554 1561 1618 1603 1387 1589 726 42 455 616 840 687 522 546 365 509 697 830
728 1222 1356 1236 1367 1443 1719 1514 1352 1184 1084 1053 1143 1552 1753 1732 1726 1723 1707 1662 1645 1626 1550 1523 1484 1384 1141 1172 1190 1310 1490 1539 600 415 390 734 837 614 987 862 392 659 474
624 1182 1418 1328 1416 1616 1863 1817 1563 1352 1231 1189 1471 1815 1640 1719 1709 1594 1610 1644 1617 1510 1447 1356 1454 1291 1173 1248 1337 1314 1458 1403 1279 935 641 669 979 1010 948 992 620 865 509
1070 1299 1684 1760 1715 1616 1728 1727 1771 1446 1104 1253 1742 1673 1728 1572 1340 1444 1578 1589 1477 1391 1446 1650 1754 1832 1626 1620 1539 1222 1401 1513 949 999 537 725 718 1631 927 710 803 857 634
1497 1634 1670 1824 1991 1857 1811 1735 1511 1440 1432 1428 1511 1457 1454 1472 1483 1374 1208 1264 1685 1730 1769 1720 1393 1224 1027 1029 1055 994 1313 1225 1126 868 974 803 669 1636 746 716 736 766 900
1005 1173 1482 1742 1708 1544 1716 1797 1713 1359 1216 1160 1184 1150 1298 1355 1078 217 458 611 1056 1175 1363 1584 1041 787 1023 1023 1145 945 1210 1451 1081 928 245 89 566 1653 905 647 276 486 958
946 864 925 1153 1465 1581 1867 1954 1631 1456 1101 900 898 926 1043 1041 938 684 582 713 507 826 1248 1158 1159 1122 1309 1567 1270 1246 1055 1321 1238 1159 901 144 608 1596 1257 1026 506 243 470
1039 1036 957 1038 1282 1377 1497 1545 1468 1396 966 701 641 882 1034 1053 1039 949 1024 824 992 1163 1259 1362 1405 1343 1193 1241 1306 1099 764 1085 1013 1117 1052 709 543 1638 1527 1392 777 588 431
1130 1095 1164 1218 1297 1315 1218 1204 1068 1142 879 754 801 1108 1163 1149 984 804 1103 1027 1180 1142 1157 992 939 1050 1212 1135 957 935 720 432 506 933 903 774 520 882 1503 1491 1277 777 656
833 927 1324 1488 1328 1439 1482 1043 1322 1369 1276 1106 1103 1088 1374 1276 938 1040 1159 1030 783 1118 932 1202 1213 1035 988 1009 930 983 993 789 424 840 938 794 704 590 880 1363 1445 1263 936
982 1177 1398 1520 1379 1441 1229 1462 1424 1640 1644 1391 1344 1263 1278 1513 1253 994 882 821 954 1022 1085 1276 1181 1164 1182 1131 1069 1159 1097 969 924 550 857 1016 821 636 689 932 1632 1490 1308
1070 1375 1452 1429 1367 1248 1479 1386 1350 1457 1323 1046 1362 1217 1359 1422 1510 1173 943 942 879 758 867 993 932 890 928 909 854 852 873 894 969 613 701 814 981 821 609 562 1071 1325 1714
1046 1193 1233 1399 1383 1197 1197 1331 1334 1286 1348 1234 1059 1167 1311 990 938 1177 852 851 908 933 1052 759 851 890 948 842 694 607 542 650 770 852 703 782 950 969 785 620 633 969 1191
789 1027 1106 984 865 951 1137 1323 1456 1514 1338 1119 1239 1315 1367 1525 1384 1215 942 999 929 757 734 768 812 721 508 449 440 442 388 411 336 497 539 658 770 764 752 763 662 691 653
320 712 1049 993 1122 1485 1447 1485 1533 1540 1592 1446 1402 1196 1322 1123 1060 1067 944 729 796 705 684 612 559 386 543 629 313 118 132 101 69 92 210 543 579 814 813 647 751 978 698
383 409 484 862 1317 1641 1544 1371 1326 1484 1387 1274 1158 1274 1380 1276 1115 821 483 720 929 483 306 136 191 232 409 243 86 42 0 0 0 78 219 373 447 578 509 585 618 784 819
399 411 619 998 1383 1574 1577 1369 1204 1178 1168 1187 1340 1340 1356 1066 1031 959 718 570 392 269 144 185 163 101 75 191 72 28 0 0 0 0 0 67 156 197 334 391 426 583 607
558 690 809 1155 1389 1572 1452 1429 1588 1620 1454 1049 610 830 582 195 117 58 160 110 146 92 44 111 120 76 7 25 31 70 4 0 0 0 0 4 11 0 26 130 352 368 320
816 876 1129 1547 1493 1683 1666 1501 1448 786 534 103 245 2 0 0 0 0 6 116 112 57 23 43 30 35 8 0 0 43 19 21 0 0 0 0 0 0 0 0 121 327 159
1103 1053 1215 1261 1272 1321 1398 1368 1551 875 0 26 0 0 0 0 0 13 166 76 3 0 0 3 0 0 4 2 0 0 0 0 0 0 0 0 0 0 0 0 0 0 47
1216 1352 1260 1062 991 1323 1393 1083 344 0 0 0 0 0 0 0 0 2 0 0 0 0 0 0 0 0 5 8 0 0 0 0 0 0 0 0 0 0 0 0 0 0 0
CIN
-16 -9 -1 -0 -0 -10 -0 -0 -1 -1 -1 -5 -25 -26 -35 -37 -26 -27 -41 -28 -25 -38 -37 -21 -22 -22 -23 -23 -22 -22 -12 -22 -8 -17 -20 -4 -1 -8 -6 -0 -0 -8 -0
-17 -24 -3 -0 -0 -0 -0 -4 -10 -8 -6 -7 -31 -28 -43 -26 -22 -12 -8 -8 -8 -41 -2 -1 -5 -20 -11 -19 -20 -10 -14 -26 -5 -14 -10 -0 -0 -0 -2 -0 -3 -0 -0
-12 -2 -3 -0 -0 -0 -10 -24 -9 -13 -13 -10 -28 -34 -18 -10 -16 -7 -2 -1 -0 -0 -6 -2 -4 -18 -20 -14 -8 -11 -15 -22 -12 -4 -12 -10 -1 -0 -0 -0 -0 -0 -0
-30 -12 -2 -0 -0 -6 -9 -3 -3 -19 -50 -69 -48 -37 -32 -31 -19 -13 -16 -16 -14 -15 -15 -15 -14 -18 -25 -27 -14 -15 -33 -29 -28 -19 -25 -3 -0 -0 -0 -0 -0 -0 -12
-40 -37 -2 -12 -2 -8 -0 -2 -14 -15 -22 -22 -21 -20 -26 -22 -16 -6 -14 -26 -26 -20 -15 -12 -7 -21 -19 -19 -20 -18 -12 -41 -72 -70 -76 -30 -29 -0 -0 -8 -0 -0 -11
-31 -13 -4 -5 -6 -0 -0 -13 -11 -23 -20 -18 -18 -21 -34 -20 -19 -5 -13 -16 -17 -15 -15 -14 -19 -33 -31 -15 -17 -19 -11 -55 -218 -83 -49 -34 -27 -13 -16 -24 -0 -0 -0
-49 -11 -3 -7 -1 -1 -0 -3 -10 -18 -33 -41 -38 -13 -8 -7 -11 -17 -20 -21 -17 -16 -25 -29 -30 -34 -54 -34 -34 -21 -7 -8 -58 -111 -113 -51 -39 -22 -1 -0 -14 -0 -4
-94 -16 -2 -3 -2 -0 -0 -0 -2 -13 -26 -31 -19 -5 -12 -8 -10 -19 -19 -16 -12 -14 -23 -27 -21 -29 -52 -34 -29 -28 -11 -2 -14 -42 -108 -106 -27 -4 -4 -1 -9 -0 -2
-53 -24 -0 -0 -1 -3 -0 -0 -0 -13 -31 -28 -5 -5 -5 -14 -35 -29 -20 -15 -19 -23 -23 -13 -9 -9 -23 -18 -19 -41 -22 -8 -54 -59 -118 -96 -52 -0 -7 -7 -7 -0 -2
-18 -9 -1 -1 -1 -2 -0 -2 -11 -15 -24 -28 -19 -29 -25 -21 -28 -30 -42 -37 -17 -14 -13 -12 -20 -27 -37 -32 -27 -46 -32 -15 -49 -80 -84 -80 -55 -0 -28 -10 -16 -1 -0
-36 -38 -22 -8 -7 -17 -5 -3 -13 -44 -66 -63 -52 -58 -44 -51 -58 -205 -136 -90 -41 -18 -19 -13 -27 -37 -27 -24 -25 -30 -32 -28 -48 -73 -208 -260 -98 -8 -16 -32 -81 -26 -0
-64 -79 -82 -68 -42 -30 -13 -9 -34 -48 -79 -92 -84 -77 -68 -64 -65 -85 -110 -72 -125 -51 -12 -18 -20 -21 -17 -24 -26 -27 -33 -32 -43 -48 -62 -149 -79 -16 -10 -11 -47 -83 -24
-76 -72 -81 -71 -54 -47 -38 -37 -43 -55 -86 -105 -104 -74 -64 -60 -62 -53 -44 -72 -43 -33 -27 -16 -18 -10 -16 -23 -21 -21 -30 -27 -42 -52 -49 -70 -80 -12 -8 -6 -28 -32 -38
-69 -67 -58 -62 -57 -51 -59 -60 -62 -70 -79 -86 -77 -57 -56 -47 -48 -51 -35 -35 -29 -24 -17 -24 -30 -29 -21 -20 -20 -22 -32 -39 -34 -45 -67 -61 -49 -28 -16 -12 -17 -24 -19
-123 -108 -49 -36 -41 -53 -52 -55 -45 -48 -57 -57 -62 -61 -54 -48 -37 -36 -37 -39 -39 -34 -40 -28 -25 -32 -33 -28 -30 -22 -17 -27 -41 -32 -44 -43 -40 -37 -22 -26 -9 -9 -15
-105 -95 -81 -49 -43 -47 -39 -31 -42 -29 -39 -45 -43 -39 -42 -32 -37 -44 -41 -45 -34 -39 -40 -35 -33 -29 -28 -33 -32 -20 -20 -23 -27 -30 -43 -41 -26 -37 -26 -18 -4 -4 -6
-86 -50 -55 -46 -40 -42 -36 -30 -26 -23 -28 -32 -32 -36 -34 -32 -32 -30 -40 -39 -38 -51 -50 -46 -43 -42 -40 -37 -36 -41 -31 -29 -30 -25 -26 -36 -30 -26 -36 -34 -18 -10 -0
-76 -49 -50 -36 -39 -44 -44 -38 -31 -31 -26 -32 -29 -35 -25 -31 -38 -40 -33 -35 -33 -36 -35 -41 -35 -31 -21 -25 -33 -41 -45 -45 -31 -29 -32 -31 -29 -35 -42 -28 -28 -27 -20
-86 -57 -70 -44 -36 -43 -49 -48 -43 -36 -35 -35 -34 -28 -14 -27 -43 -33 -30 -24 -34 -39 -29 -29 -27 -23 -28 -27 -24 -30 -44 -46 -50 -37 -35 -36 -30 -32 -26 -32 -24 -45 -38
-163 -92 -50 -39 -37 -51 -49 -52 -50 -44 -35 -37 -29 -26 -28 -26 -17 -28 -24 -34 -44 -39 -32 -25 -23 -26 -13 -11 -34 -78 -77 -79 -93 -77 -67 -41 -36 -27 -22 -44 -20 -31 -40
-161 -147 -117 -64 -45 -50 -53 -54 -56 -40 -32 -32 -33 -27 -24 -19 -20 -22 -50 -32 -28 -52 -98 -189 -133 -83 -22 -92 -172 -186 -0 -0 -0 -80 -58 -43 -44 -30 -30 -40 -26 -27 -26
-160 -143 -112 -54 -45 -53 -55 -68 -66 -43 -32 -23 -20 -25 -16 -24 -31 -39 -40 -43 -80 -140 -231 -204 -199 -192 -170 -142 -178 -225 -0 -0 -0 -0 -0 -57 -45 -58 -54 -42 -29 -21 -22
-153 -120 -103 -59 -43 -61 -71 -76 -47 -37 -28 -31 -54 -45 -82 -176 -219 -96 -199 -235 -197 -247 -293 -230 -217 -267 -322 -246 -243 -194 -60 -0 -0 -0 -0 -7 -39 -0 -41 -63 -47 -61 -76
-141 -129 -90 -55 -66 -64 -67 -67 -66 -99 -87 -268 -168 -73 -0 -0 -0 -0 -60 -214 -219 -263 -327 -287 -315 -306 -248 -0 -0 -194 -236 -219 -0 -0 -0 -0 -0 -0 -0 -0 -79 -62 -78
-132 -123 -111 -85 -82 -84 -90 -89 -72 -95 -0 -369 -0 -0 -0 -0 -0 -301 -158 -233 -55 -0 -0 -143 -0 -0 -359 -116 -1 -0 -0 -0 -0 -0 -0 -0 -0 -0 -0 -0 -0 -0 -126
-143 -115 -112 -118 -113 -100 -110 -134 -208 -0 -0 -0 -0 -0 -0 -0 -0 -86 -0 -0 -0 -0 -0 -0 -0 -0 -372 -316 -0 -0 -0 -0 -0 -0 -0 -0 -0 -0 -0 -0 -0 -0 -0
Wind_Speed
33 35 37 37 38 38 36 28 27 23 23 28 25 26 25 25 26 25 25 24 23 24 22 22 20 20 19 17 21 11 12 16 21 21 22 21 20 19 19 19 20 19 20
35 36 36 36 35 34 32 30 29 29 28 27 25 24 24 28 26 24 24 24 23 21 21 21 21 20 16 11 14 6 8 8 16 21 21 21 19 16 19 21 20 21 25
36 37 36 36 33 32 31 31 29 27 26 26 26 25 27 28 26 26 26 25 23 22 21 22 22 21 13 7 13 9 18 21 21 21 21 20 19 21 24 22 22 24 23
36 36 36 34 34 32 32 31 30 30 29 28 26 28 28 28 27 27 26 25 23 22 21 22 22 22 17 9 6 11 21 21 17 13 20 19 20 21 22 22 23 24 24
36 35 35 34 34 32 32 31 31 30 29 28 27 28 27 27 27 26 25 24 23 22 21 20 20 20 15 9 17 16 20 21 12 14 18 19 20 21 22 22 23 24 25
35 34 34 33 32 32 32 31 30 29 29 29 29 28 27 27 26 25 24 23 22 22 21 20 20 19 19 17 12 15 19 21 19 14 16 18 19 20 21 22 22 23 23
34 33 33 32 32 32 32 31 29 29 29 28 27 27 26 25 24 23 22 21 20 20 19 18 17 18 18 18 18 17 16 18 16 15 14 17 18 19 19 20 20 21 22
32 32 31 31 31 30 30 29 28 28 27 27 26 25 24 22 22 21 20 19 18 18 16 15 16 16 12 12 11 8 16 17 15 15 17 15 16 17 18 19 19 20 20
31 31 31 31 31 30 30 28 28 28 27 26 25 24 22 21 20 18 16 16 15 15 13 12 12 15 10 10 11 11 12 16 15 15 14 13 14 15 17 18 19 19 20
32 31 31 31 30 29 28 27 26 26 25 23 22 21 20 19 18 17 15 15 13 13 12 11 11 13 10 11 14 11 12 15 15 14 14 13 11 14 16 17 17 18 19
27 29 29 28 28 27 26 25 24 23 22 21 20 20 18 17 15 14 12 12 11 11 13 11 13 16 11 17 17 16 10 16 13 12 12 13 12 13 14 14 16 17 18
31 30 29 29 28 27 26 25 24 22 22 21 19 18 16 16 14 13 12 11 11 10 10 10 11 15 16 19 18 18 10 12 12 9 9 11 11 11 10 11 13 16 17
30 30 29 28 26 25 24 22 21 21 20 19 18 16 15 13 12 12 11 10 10 8 9 14 11 14 16 18 19 20 11 9 10 10 7 8 10 11 9 11 11 13 16
28 28 28 27 25 24 22 21 21 20 19 17 16 15 14 12 11 11 10 10 11 16 18 14 15 16 19 21 20 19 21 21 20 10 6 6 7 7 8 11 12 11 14
27 27 26 24 24 22 22 20 19 18 17 16 15 14 13 12 11 11 10 9 9 12 13 14 16 20 19 25 23 23 23 21 22 16 7 4 4 5 7 8 11 13 14
26 26 25 24 23 22 21 18 18 15 16 14 14 13 13 12 10 9 9 8 7 8 7 6 6 8 9 16 21 24 26 25 21 9 9 5 4 6 5 8 10 13 15
24 24 23 22 21 20 19 17 16 14 13 12 14 13 12 11 9 8 8 7 6 5 4 3 3 2 4 9 11 17 28 28 28 14 13 11 4 6 8 7 8 10 14
21 22 21 20 20 18 16 15 14 14 13 12 10 11 11 10 8 8 7 6 5 4 5 5 3 3 5 7 6 14 17 24 26 26 21 19 13 5 6 10 7 7 11
20 21 21 21 18 16 15 13 13 13 14 13 10 9 9 8 7 7 6 4 6 6 7 9 8 7 5 6 8 11 17 20 19 22 25 20 27 20 11 8 12 10 7
21 22 21 19 17 16 15 13 12 13 13 12 10 10 8 8 8 7 7 8 12 14 13 14 13 13 12 13 13 10 8 5 10 18 21 27 25 25 25 28 22 11 10
23 23 20 18 18 17 16 13 12 11 10 10 10 9 8 7 8 9 10 13 15 17 18 20 19 19 18 19 18 19 14 10 12 21 23 24 29 29 30 16 30 25 25
23 21 19 18 19 18 16 13 12 11 9 9 8 8 8 8 8 9 11 13 15 17 19 21 21 20 19 22 22 21 22 20 18 26 23 25 26 26 26 30 33 35 32
21 20 20 18 17 16 14 13 12 13 12 12 11 11 10 12 12 12 12 14 15 17 19 19 20 22 22 20 22 19 21 20 24 17 21 24 26 28 27 27 25 27 28
20 19 17 15 15 14 12 12 12 12 12 14 13 13 13 12 12 13 14 14 15 18 19 19 19 19 20 22 21 19 18 18 21 21 19 22 29 28 30 28 29 30 30
17 17 15 14 13 12 11 10 10 12 14 15 14 13 13 13 12 12 13 14 17 19 19 19 20 20 19 19 19 20 20 20 18 21 23 26 27 29 27 32 32 33 34
15 14 12 11 10 8 7 8 9 10 12 14 14 14 14 16 16 13 13 14 17 19 18 19 19 20 19 19 19 19 19 20 23 22 23 28 28 27 33 30 33 34 35
Wind_Direction
126 123 113 110 117 119 111 90 87 80 79 87 81 80 79 79 83 81 84 78 72 76 62 59 42 39 30 19 32 151 157 143 113 119 109 120 124 132 138 135 130 143 151
124 125 116 109 106 104 97 92 89 88 85 85 83 79 76 86 81 75 75 78 74 60 56 51 46 38 15 337 354 254 209 205 142 122 113 114 121 139 142 127 126 133 112
117 120 111 111 102 100 97 97 92 86 84 83 83 81 86 86 81 81 82 80 72 68 57 64 54 44 11 238 341 312 117 98 105 112 98 113 116 109 102 117 111 106 88
119 120 120 110 108 104 104 100 97 95 93 91 88 93 93 90 89 95 94 87 78 67 62 65 59 60 127 200 237 316 57 71 126 143 91 108 101 105 97 113 114 104 101
119 116 120 111 113 109 108 101 101 97 96 97 96 102 95 95 95 99 95 91 83 72 66 53 54 59 119 227 113 105 30 55 295 352 106 110 98 100 99 109 113 110 102
120 116 118 116 113 113 113 108 103 102 101 103 105 104 102 102 103 101 95 86 83 84 81 79 57 47 36 353 284 119 62 50 33 305 17 110 99 97 93 103 114 107 106
119 117 119 118 119 120 118 117 112 113 112 112 110 106 105 103 102 97 94 90 91 92 92 97 85 59 44 28 39 54 90 68 18 328 56 88 97 96 99 102 108 108 110
117 121 120 120 119 115 114 117 120 119 120 121 120 115 112 104 97 97 103 100 98 100 104 97 80 66 132 127 184 346 51 31 96 102 105 93 102 93 100 105 107 116 112
121 125 129 131 129 126 124 120 123 127 131 129 125 122 115 108 107 110 125 132 116 97 107 123 112 70 126 161 180 186 106 48 51 74 62 30 83 101 108 116 112 120 122
126 130 130 132 130 126 120 121 122 125 127 123 119 118 114 109 111 120 102 137 133 108 118 133 121 83 120 112 73 178 137 50 48 52 70 81 83 99 116 119 116 127 128
118 129 132 128 129 126 124 126 126 126 129 126 128 134 119 116 118 119 122 123 147 112 88 116 70 46 85 31 31 32 189 17 47 67 70 88 100 108 114 116 123 132 137
139 143 143 142 140 137 140 140 139 141 147 149 147 145 136 139 142 144 143 135 148 145 113 103 104 43 33 360 0 359 61 47 34 67 83 93 105 114 105 109 120 133 141
143 146 147 142 138 138 141 138 139 144 148 154 154 149 140 135 131 141 136 123 106 129 108 48 67 42 20 3 2 328 18 77 46 34 93 103 114 129 115 125 124 134 144
141 147 145 144 141 142 138 139 144 148 149 151 156 154 152 141 130 125 114 92 71 30 16 43 39 32 1 344 347 352 342 329 326 28 66 101 121 117 119 137 141 141 150
145 147 143 141 145 147 145 148 148 154 158 157 159 162 162 152 146 124 107 102 85 57 48 33 20 360 1 337 332 332 332 336 314 337 22 95 119 139 134 140 154 158 159
152 153 146 143 149 146 146 150 158 157 163 161 164 165 163 165 158 139 134 127 122 124 118 96 83 49 42 12 351 330 320 323 333 346 350 360 159 168 168 162 162 169 170
149 146 144 143 147 145 148 144 137 123 118 133 159 166 163 163 154 142 135 113 114 115 124 132 146 98 46 29 19 359 316 316 317 338 329 327 315 192 184 182 175 174 181
140 145 143 142 147 145 144 149 155 159 151 145 131 154 157 169 152 139 120 101 89 98 66 59 75 71 47 28 13 358 348 333 321 315 318 311 307 284 217 197 199 194 187
144 149 150 152 148 145 140 133 144 159 168 172 143 122 122 137 136 119 89 98 50 51 42 32 28 29 17 16 12 0 348 340 339 326 316 316 293 293 287 274 204 213 222
148 151 151 149 148 141 133 133 141 150 167 165 156 159 120 80 78 75 58 43 27 25 22 18 15 14 15 16 12 8 5 358 354 338 329 304 303 294 287 285 287 271 252
150 150 148 141 147 138 139 134 135 143 146 161 171 153 147 108 83 65 45 31 20 12 8 3 4 3 5 7 7 6 15 29 21 350 336 321 301 295 285 297 282 284 283
150 149 146 143 142 137 133 121 100 104 118 120 111 98 99 88 81 62 41 25 18 11 4 2 4 4 6 1 0 6 2 10 17 343 346 331 323 318 305 291 282 277 280
148 144 142 137 131 129 120 100 89 77 73 57 54 50 64 51 47 36 30 21 14 14 9 5 2 359 356 2 2 5 359 360 354 13 3 344 331 318 314 309 304 293 289
152 144 140 130 126 122 109 99 88 79 68 46 51 51 44 44 37 25 20 23 21 13 8 7 5 3 1 355 2 9 7 3 357 353 1 357 333 326 315 312 305 298 291
151 149 141 137 131 121 108 95 84 53 38 41 46 44 35 28 27 25 23 22 13 8 10 9 8 6 5 3 4 2 2 1 3 352 348 345 342 331 328 314 310 300 296
157 155 151 147 144 126 97 72 57 50 45 42 41 36 30 17 16 28 27 20 9 4 7 7 7 5 4 4 3 3 3 358 350 352 347 340 339 339 325 323 311 307 304